| time (UTC) | temp F | wind direction | speed knots | gust knots | rain 1hr in | rain 24hr in | rain mn in | humidity % | barometer mb |
| 20260903202819 | 96 | 150 | 0.0 | 0.0 | 0.00 | 0.05 | 0.00 | 49 | 1013.0 |
| 20260903202547 | 95 | 89 | 0.0 | 0.0 | 0.00 | 0.05 | 0.00 | 49 | 1009.8 |
| 20260903202352 | 96 | 117 | 0.0 | 0.0 | 0.00 | 0.05 | 0.00 | 50 | 1013.0 |
| 20260903202011 | 95 | 135 | 0.0 | 0.0 | 0.00 | 0.05 | 0.00 | 49 | 1009.9 |
| 20260903201829 | 96 | 89 | 0.0 | 0.0 | 0.00 | 0.05 | 0.00 | 50 | 1013.1 |
| 20260903201508 | 95 | 135 | 0.0 | 0.0 | 0.00 | 0.05 | 0.00 | 50 | 1009.9 |
| 20260903201325 | 95 | 121 | 0.0 | 0.0 | 0.00 | 0.05 | 0.00 | 50 | 1013.1 |
| 20260903201106 | 95 | 164 | 0.0 | 0.0 | 0.00 | 0.05 | 0.00 | 50 | 1009.9 |
| 20260903200823 | 95 | 141 | 0.0 | 0.0 | 0.00 | 0.05 | 0.00 | 50 | 1013.2 |
| 20260903200554 | 94 | 129 | 0.0 | 0.0 | 0.00 | 0.05 | 0.00 | 50 | 1010.1 |
| 20260903200321 | 95 | 143 | 0.0 | 0.0 | 0.00 | 0.05 | 0.00 | 50 | 1013.3 |
| 20260903200057 | 94 | 125 | 0.0 | 0.0 | 0.00 | 0.05 | 0.00 | 50 | 1010.2 |
| 20260903195819 | 95 | 95 | 0.0 | 0.0 | 0.00 | 0.05 | 0.00 | 50 | 1013.3 |
| 20260903195539 | 94 | 102 | 0.0 | 0.0 | 0.00 | 0.05 | 0.00 | 49 | 1010.3 |
| 20260903195317 | 95 | 55 | 0.0 | 0.0 | 0.00 | 0.05 | 0.00 | 49 | 1013.5 |
| 20260903195033 | 95 | 102 | 0.0 | 0.0 | 0.00 | 0.05 | 0.00 | 50 | 1010.4 |
| 20260903194815 | 95 | 124 | 0.0 | 0.0 | 0.00 | 0.05 | 0.00 | 50 | 1013.6 |
| 20260903194527 | 94 | 56 | 0.0 | 0.0 | 0.00 | 0.05 | 0.00 | 50 | 1010.4 |
| 20260903194333 | 95 | 139 | 0.0 | 0.0 | 0.00 | 0.05 | 0.00 | 50 | 1013.7 |
| 20260903194015 | 94 | 139 | 0.0 | 0.0 | 0.00 | 0.05 | 0.00 | 50 | 1010.6 |
| 20260903193851 | 95 | 131 | 0.0 | 0.0 | 0.00 | 0.05 | 0.00 | 49 | 1013.8 |
| 20260903193551 | 94 | 133 | 0.0 | 0.0 | 0.00 | 0.05 | 0.00 | 50 | 1010.6 |
| 20260903193329 | 95 | 70 | 0.0 | 0.0 | 0.00 | 0.05 | 0.00 | 50 | 1013.8 |
| 20260903193044 | 94 | 97 | 0.0 | 0.0 | 0.00 | 0.05 | 0.00 | 50 | 1010.7 |
| 20260903192829 | 95 | 116 | 0.0 | 0.0 | 0.00 | 0.05 | 0.00 | 49 | 1013.9 |
| 20260903192537 | 95 | 87 | 0.0 | 0.0 | 0.00 | 0.05 | 0.00 | 50 | 1010.6 |
| 20260903192326 | 95 | 135 | 0.0 | 0.0 | 0.00 | 0.05 | 0.00 | 50 | 1014.0 |
| 20260903192031 | 94 | 146 | 0.0 | 0.0 | 0.00 | 0.05 | 0.00 | 50 | 1010.8 |
| 20260903191823 | 94 | 127 | 0.0 | 0.0 | 0.00 | 0.05 | 0.00 | 51 | 1013.9 |
| 20260903191524 | 94 | 118 | 0.0 | 0.0 | 0.00 | 0.05 | 0.00 | 51 | 1010.9 |
| 20260903191321 | 94 | 118 | 0.0 | 0.0 | 0.00 | 0.05 | 0.00 | 50 | 1014.1 |
| 20260903191009 | 93 | 172 | 0.0 | 0.0 | 0.00 | 0.05 | 0.00 | 50 | 1011.0 |
| 20260903190818 | 94 | 140 | 0.0 | 0.0 | 0.00 | 0.05 | 0.00 | 50 | 1014.2 |
| 20260903190502 | 93 | 152 | 0.0 | 0.0 | 0.00 | 0.05 | 0.00 | 50 | 1011.1 |
| 20260903190315 | 94 | 153 | 0.0 | 0.0 | 0.00 | 0.05 | 0.00 | 50 | 1014.3 |
| 20260903190053 | 93 | 166 | 0.0 | 0.0 | 0.00 | 0.05 | 0.00 | 51 | 1011.1 |
| 20260903185831 | 93 | 120 | 0.0 | 0.0 | 0.00 | 0.05 | 0.00 | 51 | 1014.4 |
| 20260903185545 | 92 | 164 | 0.0 | 0.0 | 0.00 | 0.05 | 0.00 | 51 | 1011.2 |
| 20260903185350 | 93 | 163 | 0.0 | 0.0 | 0.00 | 0.05 | 0.00 | 51 | 1014.5 |
| 20260903185008 | 92 | 116 | 0.0 | 0.0 | 0.00 | 0.05 | 0.00 | 51 | 1011.3 |
| 20260903184825 | 93 | 64 | 0.0 | 0.0 | 0.00 | 0.05 | 0.00 | 51 | 1014.6 |
| 20260903184559 | 92 | 77 | 0.0 | 0.0 | 0.00 | 0.05 | 0.00 | 51 | 1011.3 |
| 20260903184324 | 93 | 123 | 0.0 | 0.0 | 0.00 | 0.05 | 0.00 | 51 | 1014.7 |
| 20260903184053 | 92 | 160 | 0.0 | 0.0 | 0.00 | 0.05 | 0.00 | 50 | 1011.4 |
| 20260903183842 | 93 | 192 | 0.0 | 0.0 | 0.00 | 0.05 | 0.00 | 51 | 1014.6 |
| 20260903183523 | 92 | 87 | 0.0 | 0.0 | 0.00 | 0.05 | 0.00 | 52 | 1011.5 |
| 20260903183319 | 92 | 138 | 0.0 | 0.0 | 0.00 | 0.05 | 0.00 | 51 | 1014.8 |
| 20260903183019 | 92 | 160 | 0.0 | 0.0 | 0.00 | 0.05 | 0.00 | 52 | 1011.5 |
| 20260903182817 | 92 | 145 | 0.0 | 0.0 | 0.00 | 0.05 | 0.00 | 52 | 1014.8 |
| 20260903182503 | 92 | 125 | 0.0 | 0.0 | 0.00 | 0.05 | 0.00 | 53 | 1011.7 |
| 20260903182316 | 93 | 85 | 0.0 | 0.0 | 0.00 | 0.05 | 0.00 | 52 | 1014.9 |
| 20260903182058 | 92 | 132 | 0.0 | 0.0 | 0.00 | 0.05 | 0.00 | 53 | 1011.8 |
| 20260903181814 | 93 | 143 | 0.0 | 0.0 | 0.00 | 0.05 | 0.00 | 53 | 1015.0 |
| 20260903181549 | 92 | 170 | 0.0 | 0.0 | 0.00 | 0.05 | 0.00 | 53 | 1011.9 |
| 20260903181352 | 93 | 133 | 0.0 | 0.0 | 0.00 | 0.05 | 0.00 | 53 | 1015.1 |
| 20260903181015 | 92 | 161 | 0.0 | 0.0 | 0.00 | 0.05 | 0.00 | 53 | 1012.0 |
| 20260903180830 | 92 | 159 | 0.0 | 0.0 | 0.00 | 0.05 | 0.00 | 53 | 1015.3 |
| 20260903180510 | 91 | 144 | 0.0 | 0.0 | 0.00 | 0.05 | 0.00 | 54 | 1012.1 |
| 20260903180329 | 92 | 108 | 0.0 | 0.0 | 0.00 | 0.05 | 0.00 | 54 | 1015.3 |
| 20260903175826 | 92 | 161 | 0.0 | 0.0 | 0.00 | 0.05 | 0.00 | 55 | 1015.3 |
| 20260903175553 | 91 | 152 | 0.0 | 0.0 | 0.00 | 0.05 | 0.00 | 56 | 1012.2 |
| 20260903175323 | 91 | 214 | 0.0 | 0.0 | 0.00 | 0.05 | 0.00 | 56 | 1015.3 |
| 20260903175047 | 90 | 101 | 0.0 | 0.0 | 0.00 | 0.05 | 0.00 | 57 | 1012.1 |
| 20260903174841 | 91 | 102 | 0.0 | 0.0 | 0.00 | 0.05 | 0.00 | 57 | 1015.4 |
| 20260903174518 | 90 | 113 | 0.0 | 0.0 | 0.00 | 0.05 | 0.00 | 56 | 1012.2 |
| 20260903174319 | 91 | 158 | 0.0 | 0.0 | 0.00 | 0.05 | 0.00 | 57 | 1015.5 |
| 20260903174104 | 90 | 131 | 0.0 | 0.0 | 0.00 | 0.05 | 0.00 | 57 | 1012.2 |
| 20260903173819 | 91 | 133 | 0.0 | 0.0 | 0.00 | 0.05 | 0.00 | 57 | 1015.4 |
| 20260903173553 | 90 | 188 | 0.0 | 0.0 | 0.00 | 0.05 | 0.00 | 57 | 1012.2 |
| 20260903173315 | 90 | 235 | 0.0 | 0.0 | 0.00 | 0.05 | 0.00 | 58 | 1015.4 |
| 20260903173045 | 89 | 231 | 0.0 | 0.0 | 0.00 | 0.05 | 0.00 | 58 | 1012.2 |
| 20260903172852 | 90 | 190 | 0.0 | 0.0 | 0.00 | 0.05 | 0.00 | 58 | 1015.5 |
| 20260903172509 | 89 | 194 | 0.0 | 0.0 | 0.00 | 0.05 | 0.00 | 58 | 1012.3 |
| 20260903172329 | 90 | 181 | 0.0 | 0.0 | 0.00 | 0.05 | 0.00 | 59 | 1015.5 |
| 20260903172002 | 89 | 217 | 0.0 | 0.0 | 0.00 | 0.05 | 0.00 | 60 | 1012.2 |
| 20260903171848 | 89 | 278 | 0.0 | 0.0 | 0.00 | 0.05 | 0.00 | 60 | 1015.5 |
| 20260903171537 | 89 | 212 | 0.0 | 0.0 | 0.00 | 0.05 | 0.00 | 61 | 1012.2 |
| 20260903171324 | 89 | 226 | 0.0 | 0.0 | 0.00 | 0.05 | 0.00 | 61 | 1015.4 |
| 20260903171033 | 88 | 247 | 0.0 | 0.0 | 0.00 | 0.05 | 0.00 | 61 | 1012.3 |
| 20260903170822 | 88 | 187 | 0.0 | 0.0 | 0.00 | 0.05 | 0.00 | 61 | 1015.5 |
| 20260903170524 | 88 | 234 | 0.0 | 0.0 | 0.00 | 0.05 | 0.00 | 61 | 1012.4 |
| 20260903170320 | 88 | 217 | 0.0 | 0.0 | 0.00 | 0.05 | 0.00 | 62 | 1015.6 |
| 20260903170017 | 88 | 183 | 0.0 | 0.0 | 0.00 | 0.05 | 0.00 | 61 | 1012.5 |
| 20260903165819 | 88 | 218 | 0.0 | 0.0 | 0.00 | 0.05 | 0.00 | 62 | 1015.7 |
| 20260903165600 | 88 | 278 | 0.0 | 0.0 | 0.00 | 0.05 | 0.00 | 63 | 1012.4 |
| 20260903165316 | 88 | 195 | 0.0 | 0.0 | 0.00 | 0.05 | 0.00 | 64 | 1015.6 |
| 20260903165052 | 87 | 240 | 0.0 | 0.0 | 0.00 | 0.05 | 0.00 | 65 | 1012.5 |
| 20260903164814 | 87 | 219 | 0.0 | 0.0 | 0.00 | 0.05 | 0.00 | 65 | 1015.7 |
| 20260903164545 | 86 | 242 | 0.0 | 0.0 | 0.00 | 0.05 | 0.00 | 65 | 1012.5 |
| 20260903164328 | 87 | 220 | 0.0 | 0.0 | 0.00 | 0.05 | 0.00 | 64 | 1015.8 |
| 20260903164036 | 86 | 224 | 0.0 | 0.0 | 0.00 | 0.05 | 0.00 | 65 | 1012.6 |
| 20260903163825 | 87 | 247 | 0.0 | 0.0 | 0.00 | 0.05 | 0.00 | 65 | 1015.8 |
| 20260903163528 | 86 | 212 | 0.0 | 0.0 | 0.00 | 0.05 | 0.00 | 66 | 1012.5 |
| 20260903163323 | 86 | 220 | 0.0 | 0.0 | 0.00 | 0.05 | 0.00 | 66 | 1015.8 |
| 20260903163007 | 86 | 215 | 0.0 | 0.0 | 0.00 | 0.05 | 0.00 | 66 | 1012.6 |
| 20260903162821 | 86 | 247 | 0.0 | 0.0 | 0.00 | 0.05 | 0.00 | 67 | 1015.8 |
| 20260903162604 | 86 | 204 | 0.0 | 0.0 | 0.00 | 0.05 | 0.00 | 67 | 1012.5 |
| 20260903162339 | 86 | 195 | 0.0 | 0.0 | 0.00 | 0.05 | 0.00 | 67 | 1015.7 |
| 20260903162045 | 86 | 216 | 0.0 | 0.0 | 0.00 | 0.05 | 0.00 | 68 | 1012.5 |
| 20260903161830 | 86 | 198 | 0.0 | 0.0 | 0.00 | 0.05 | 0.00 | 69 | 1015.6 |
| 20260903161537 | 85 | 204 | 0.0 | 0.0 | 0.00 | 0.05 | 0.00 | 68 | 1012.5 |
| 20260903161328 | 85 | 193 | 0.0 | 0.0 | 0.00 | 0.05 | 0.00 | 69 | 1015.7 |
| 20260903161028 | 85 | 220 | 0.0 | 0.0 | 0.00 | 0.05 | 0.00 | 69 | 1012.5 |
| 20260903160825 | 85 | 197 | 0.0 | 0.0 | 0.00 | 0.05 | 0.00 | 69 | 1015.6 |
| 20260903160510 | 85 | 214 | 0.0 | 0.0 | 0.00 | 0.05 | 0.00 | 69 | 1012.5 |
| 20260903160325 | 85 | 216 | 0.0 | 0.0 | 0.00 | 0.05 | 0.00 | 70 | 1015.6 |
| 20260903160001 | 85 | 222 | 0.0 | 8.7 | 0.00 | 0.05 | 0.00 | 70 | 1012.5 |
| 20260903155842 | 85 | 235 | 0.0 | 8.7 | 0.00 | 0.05 | 0.00 | 71 | 1015.8 |
| 20260903155532 | 84 | 235 | 0.0 | 13.9 | 0.00 | 0.05 | 0.00 | 72 | 1012.5 |
| 20260903155339 | 84 | 199 | 3.5 | 13.9 | 0.00 | 0.05 | 0.00 | 72 | 1015.7 |
| 20260903155019 | 83 | 242 | 7.8 | 13.0 | 0.00 | 0.05 | 0.00 | 72 | 1012.6 |
| 20260903154830 | 84 | 208 | 7.8 | 13.9 | 0.00 | 0.05 | 0.00 | 72 | 1015.8 |
| 20260903154503 | 83 | 229 | 8.7 | 13.0 | 0.00 | 0.05 | 0.00 | 72 | 1012.4 |
| 20260903154329 | 83 | 226 | 7.8 | 13.0 | 0.00 | 0.05 | 0.00 | 73 | 1015.6 |
| 20260903154055 | 83 | 214 | 7.8 | 13.0 | 0.00 | 0.05 | 0.00 | 73 | 1012.3 |
| 20260903153846 | 83 | 227 | 7.8 | 12.2 | 0.00 | 0.05 | 0.00 | 74 | 1015.6 |
| 20260903153525 | 82 | 249 | 8.7 | 12.2 | 0.00 | 0.05 | 0.00 | 73 | 1012.2 |
| 20260903153322 | 83 | 229 | 7.8 | 13.9 | 0.00 | 0.05 | 0.00 | 74 | 1015.5 |
| 20260903153009 | 82 | 206 | 7.0 | 13.0 | 0.00 | 0.05 | 0.00 | 74 | 1012.3 |
| 20260903152820 | 83 | 241 | 7.0 | 13.0 | 0.00 | 0.05 | 0.00 | 74 | 1015.3 |
| 20260903152502 | 82 | 219 | 6.1 | 13.0 | 0.00 | 0.05 | 0.00 | 75 | 1012.2 |
| 20260903152339 | 82 | 225 | 5.2 | 13.0 | 0.00 | 0.05 | 0.00 | 75 | 1015.4 |
| 20260903152054 | 82 | 191 | 5.2 | 14.8 | 0.00 | 0.05 | 0.00 | 75 | 1012.2 |
| 20260903151830 | 82 | 235 | 7.8 | 14.8 | 0.00 | 0.05 | 0.00 | 75 | 1015.4 |
| 20260903151542 | 82 | 197 | 9.6 | 14.8 | 0.00 | 0.05 | 0.00 | 75 | 1012.2 |
| 20260903151329 | 82 | 217 | 10.4 | 14.8 | 0.00 | 0.05 | 0.00 | 75 | 1015.5 |
| 20260903151034 | 81 | 201 | 10.4 | 16.5 | 0.00 | 0.05 | 0.00 | 75 | 1012.2 |
| 20260903150826 | 82 | 222 | 9.6 | 16.5 | 0.00 | 0.05 | 0.00 | 76 | 1015.5 |
| 20260903150528 | 81 | 189 | 6.1 | 13.9 | 0.00 | 0.05 | 0.00 | 77 | 1012.2 |
| 20260903150325 | 82 | 217 | 7.8 | 11.3 | 0.00 | 0.05 | 0.00 | 77 | 1015.4 |
| 20260903150011 | 81 | 197 | 7.8 | 13.0 | 0.00 | 0.05 | 0.00 | 77 | 1012.3 |
| 20260903145823 | 82 | 210 | 7.0 | 10.4 | 0.00 | 0.05 | 0.00 | 78 | 1015.5 |
| 20260903145601 | 81 | 218 | 7.0 | 13.0 | 0.00 | 0.05 | 0.00 | 78 | 1012.3 |
| 20260903145321 | 81 | 210 | 6.1 | 13.0 | 0.00 | 0.05 | 0.00 | 78 | 1015.5 |
| 20260903145053 | 81 | 202 | 6.1 | 13.0 | 0.00 | 0.05 | 0.00 | 78 | 1012.3 |
| 20260903144839 | 81 | 224 | 8.7 | 13.0 | 0.00 | 0.05 | 0.00 | 78 | 1015.5 |
| 20260903144543 | 80 | 232 | 8.7 | 13.0 | 0.00 | 0.05 | 0.00 | 78 | 1012.4 |
| 20260903144329 | 81 | 216 | 8.7 | 12.2 | 0.00 | 0.05 | 0.00 | 79 | 1015.5 |
| 20260903144034 | 80 | 218 | 7.8 | 12.2 | 0.00 | 0.05 | 0.00 | 79 | 1012.4 |
| 20260903143829 | 81 | 198 | 7.8 | 12.2 | 0.00 | 0.05 | 0.00 | 80 | 1015.6 |
| 20260903143514 | 80 | 218 | 6.1 | 11.3 | 0.00 | 0.05 | 0.00 | 80 | 1012.4 |
| 20260903143326 | 80 | 212 | 7.8 | 11.3 | 0.00 | 0.05 | 0.00 | 80 | 1015.5 |
| 20260903143009 | 80 | 210 | 7.0 | 13.9 | 0.00 | 0.05 | 0.00 | 81 | 1012.3 |
| 20260903142824 | 80 | 211 | 6.1 | 14.8 | 0.00 | 0.05 | 0.00 | 81 | 1015.4 |
| 20260903142503 | 79 | 212 | 7.8 | 14.8 | 0.00 | 0.05 | 0.00 | 81 | 1012.2 |
| 20260903142343 | 80 | 187 | 7.8 | 14.8 | 0.00 | 0.05 | 0.00 | 81 | 1015.4 |
| 20260903142041 | 79 | 219 | 8.7 | 11.3 | 0.00 | 0.05 | 0.00 | 82 | 1012.2 |
| 20260903141819 | 80 | 235 | 8.7 | 13.0 | 0.00 | 0.05 | 0.00 | 82 | 1015.3 |
| 20260903141543 | 79 | 226 | 7.8 | 13.0 | 0.00 | 0.05 | 0.00 | 82 | 1012.2 |
| 20260903141319 | 79 | 205 | 7.8 | 13.0 | 0.00 | 0.05 | 0.00 | 83 | 1015.4 |
| 20260903141038 | 79 | 197 | 6.1 | 10.4 | 0.00 | 0.05 | 0.00 | 83 | 1012.3 |
| 20260903140817 | 79 | 183 | 7.0 | 10.4 | 0.00 | 0.05 | 0.00 | 83 | 1015.4 |
| 20260903140531 | 78 | 186 | 6.1 | 13.0 | 0.00 | 0.05 | 0.00 | 83 | 1012.3 |
| 20260903140335 | 79 | 206 | 7.0 | 13.0 | 0.00 | 0.05 | 0.00 | 84 | 1015.4 |
| 20260903140057 | 78 | 212 | 7.8 | 13.0 | 0.00 | 0.05 | 0.00 | 84 | 1012.3 |
| 20260903135851 | 79 | 216 | 7.8 | 13.0 | 0.00 | 0.05 | 0.00 | 84 | 1015.4 |
| 20260903135528 | 78 | 206 | 7.8 | 12.2 | 0.00 | 0.05 | 0.00 | 84 | 1012.3 |
| 20260903135330 | 79 | 226 | 6.1 | 12.2 | 0.00 | 0.05 | 0.00 | 84 | 1015.4 |
| 20260903135014 | 78 | 198 | 7.0 | 12.2 | 0.00 | 0.05 | 0.00 | 84 | 1012.3 |
| 20260903134830 | 79 | 181 | 7.0 | 12.2 | 0.00 | 0.05 | 0.00 | 84 | 1015.6 |
| 20260903134509 | 78 | 207 | 6.1 | 10.4 | 0.00 | 0.05 | 0.00 | 84 | 1012.4 |
| 20260903134330 | 78 | 208 | 7.0 | 10.4 | 0.00 | 0.05 | 0.00 | 84 | 1015.6 |
| 20260903134002 | 78 | 187 | 5.2 | 8.7 | 0.00 | 0.05 | 0.00 | 85 | 1012.5 |
| 20260903133850 | 78 | 198 | 7.0 | 8.7 | 0.00 | 0.05 | 0.00 | 84 | 1015.7 |
| 20260903133532 | 78 | 204 | 5.2 | 9.6 | 0.00 | 0.05 | 0.00 | 84 | 1012.5 |
| 20260903133328 | 78 | 210 | 5.2 | 9.6 | 0.00 | 0.05 | 0.00 | 84 | 1015.7 |
| 20260903133027 | 78 | 195 | 6.1 | 9.6 | 0.00 | 0.05 | 0.00 | 84 | 1012.5 |
| 20260903132826 | 78 | 209 | 6.1 | 9.6 | 0.00 | 0.05 | 0.00 | 85 | 1015.6 |
| 20260903132523 | 78 | 220 | 6.1 | 8.7 | 0.00 | 0.05 | 0.00 | 85 | 1012.6 |
| 20260903132346 | 78 | 210 | 4.3 | 7.8 | 0.00 | 0.05 | 0.00 | 85 | 1015.6 |
| 20260903132044 | 78 | 214 | 5.2 | 8.7 | 0.00 | 0.05 | 0.00 | 85 | 1012.5 |
| 20260903131840 | 78 | 204 | 4.3 | 8.7 | 0.00 | 0.05 | 0.00 | 85 | 1015.7 |
| 20260903131507 | 77 | 182 | 3.5 | 8.7 | 0.00 | 0.05 | 0.00 | 85 | 1012.5 |
| 20260903131337 | 78 | 156 | 6.1 | 8.7 | 0.00 | 0.05 | 0.00 | 85 | 1015.6 |
| 20260903131057 | 77 | 206 | 3.5 | 8.7 | 0.00 | 0.05 | 0.00 | 85 | 1012.5 |
| 20260903130830 | 78 | 187 | 5.2 | 8.7 | 0.00 | 0.05 | 0.00 | 85 | 1015.6 |
| 20260903130550 | 77 | 179 | 5.2 | 8.7 | 0.00 | 0.05 | 0.00 | 85 | 1012.5 |
| 20260903130330 | 78 | 184 | 5.2 | 8.7 | 0.00 | 0.05 | 0.00 | 85 | 1015.6 |
| 20260903130042 | 77 | 197 | 5.2 | 8.7 | 0.00 | 0.05 | 0.00 | 85 | 1012.3 |
| 20260903125850 | 78 | 188 | 5.2 | 9.6 | 0.00 | 0.05 | 0.00 | 85 | 1015.5 |
| 20260903125509 | 77 | 192 | 5.2 | 9.6 | 0.00 | 0.05 | 0.00 | 85 | 1012.4 |
| 20260903125329 | 78 | 188 | 6.1 | 9.6 | 0.00 | 0.05 | 0.00 | 85 | 1015.5 |
| 20260903125003 | 77 | 193 | 6.1 | 9.6 | 0.00 | 0.05 | 0.00 | 85 | 1012.3 |
| 20260903124827 | 78 | 173 | 6.1 | 9.6 | 0.00 | 0.05 | 0.00 | 85 | 1015.5 |
| 20260903124557 | 77 | 183 | 4.3 | 9.6 | 0.00 | 0.05 | 0.00 | 84 | 1012.4 |
| 20260903124325 | 78 | 185 | 4.3 | 9.6 | 0.00 | 0.05 | 0.00 | 84 | 1015.4 |
| 20260903124050 | 77 | 189 | 5.2 | 9.6 | 0.00 | 0.05 | 0.00 | 84 | 1012.3 |
| 20260903123824 | 78 | 187 | 5.2 | 8.7 | 0.00 | 0.05 | 0.00 | 84 | 1015.4 |
| 20260903123542 | 77 | 185 | 5.2 | 7.8 | 0.00 | 0.05 | 0.00 | 84 | 1012.2 |
| 20260903123323 | 78 | 166 | 5.2 | 7.8 | 0.00 | 0.05 | 0.00 | 84 | 1015.4 |
| 20260903123037 | 77 | 187 | 4.3 | 7.8 | 0.00 | 0.05 | 0.00 | 84 | 1012.1 |
| 20260903122821 | 78 | 189 | 4.3 | 7.8 | 0.00 | 0.05 | 0.00 | 84 | 1015.2 |
| 20260903122531 | 77 | 185 | 3.5 | 7.0 | 0.00 | 0.05 | 0.00 | 84 | 1012.1 |
| 20260903122338 | 78 | 180 | 3.5 | 7.0 | 0.00 | 0.05 | 0.00 | 84 | 1015.2 |
| 20260903122017 | 77 | 180 | 4.3 | 7.0 | 0.00 | 0.05 | 0.00 | 84 | 1012.1 |
| 20260903121831 | 77 | 168 | 5.2 | 7.8 | 0.00 | 0.05 | 0.00 | 84 | 1015.2 |
| 20260903121506 | 77 | 152 | 4.3 | 7.8 | 0.00 | 0.05 | 0.00 | 84 | 1012.1 |
| 20260903121330 | 77 | 159 | 4.3 | 7.8 | 0.00 | 0.05 | 0.00 | 84 | 1015.1 |
| 20260903121056 | 77 | 179 | 3.5 | 7.8 | 0.00 | 0.05 | 0.00 | 84 | 1012.1 |
| 20260903120829 | 77 | 166 | 5.2 | 7.8 | 0.00 | 0.05 | 0.00 | 84 | 1015.2 |
| 20260903120549 | 77 | 168 | 5.2 | 7.8 | 0.00 | 0.05 | 0.00 | 84 | 1012.1 |
| 20260903120327 | 77 | 184 | 6.1 | 7.8 | 0.00 | 0.05 | 0.00 | 84 | 1015.0 |
| 20260903120049 | 77 | 160 | 4.3 | 7.0 | 0.00 | 0.05 | 0.00 | 84 | 1012.0 |
| 20260903115844 | 77 | 184 | 4.3 | 7.0 | 0.00 | 0.05 | 0.00 | 83 | 1015.0 |
| 20260903115505 | 77 | 185 | 4.3 | 7.0 | 0.00 | 0.05 | 0.00 | 83 | 1012.0 |
| 20260903115320 | 77 | 190 | 4.3 | 7.0 | 0.00 | 0.05 | 0.00 | 83 | 1015.1 |
| 20260903115102 | 77 | 190 | 4.3 | 7.0 | 0.00 | 0.05 | 0.00 | 83 | 1012.0 |
| 20260903114840 | 77 | 162 | 5.2 | 7.0 | 0.00 | 0.05 | 0.00 | 83 | 1015.1 |
| 20260903114550 | 77 | 158 | 4.3 | 6.1 | 0.00 | 0.05 | 0.00 | 83 | 1012.0 |
| 20260903114332 | 77 | 169 | 4.3 | 5.2 | 0.00 | 0.05 | 0.00 | 83 | 1015.1 |
| 20260903114040 | 77 | 178 | 3.5 | 6.1 | 0.00 | 0.05 | 0.00 | 83 | 1012.0 |
| 20260903113829 | 77 | 159 | 5.2 | 6.1 | 0.00 | 0.05 | 0.00 | 83 | 1015.1 |
| 20260903113532 | 77 | 165 | 2.6 | 7.0 | 0.00 | 0.05 | 0.00 | 83 | 1012.0 |
| 20260903113327 | 77 | 172 | 4.3 | 6.1 | 0.00 | 0.05 | 0.00 | 83 | 1014.9 |
| 20260903113015 | 77 | 192 | 4.3 | 6.1 | 0.00 | 0.05 | 0.00 | 82 | 1011.9 |
| 20260903112824 | 77 | 195 | 4.3 | 6.1 | 0.00 | 0.05 | 0.00 | 82 | 1014.9 |
| 20260903112507 | 77 | 197 | 3.5 | 7.0 | 0.00 | 0.05 | 0.00 | 82 | 1011.8 |
| 20260903112322 | 77 | 187 | 3.5 | 7.0 | 0.00 | 0.05 | 0.00 | 82 | 1014.9 |
| 20260903112003 | 77 | 200 | 4.3 | 7.0 | 0.00 | 0.05 | 0.00 | 82 | 1011.9 |
| 20260903111840 | 77 | 208 | 3.5 | 7.0 | 0.00 | 0.05 | 0.00 | 82 | 1014.8 |
| 20260903111608 | 77 | 193 | 3.5 | 6.1 | 0.00 | 0.05 | 0.00 | 82 | 1011.8 |
| 20260903111331 | 77 | 193 | 3.5 | 6.1 | 0.00 | 0.05 | 0.00 | 82 | 1014.9 |
| 20260903111056 | 77 | 194 | 3.5 | 6.1 | 0.00 | 0.05 | 0.00 | 82 | 1011.9 |
| 20260903110829 | 78 | 198 | 4.3 | 6.1 | 0.00 | 0.05 | 0.00 | 82 | 1014.9 |
| 20260903110548 | 77 | 183 | 2.6 | 4.3 | 0.00 | 0.05 | 0.00 | 81 | 1011.8 |
| 20260903110326 | 78 | 183 | 2.6 | 5.2 | 0.00 | 0.05 | 0.00 | 81 | 1014.8 |
| 20260903110041 | 77 | 183 | 2.6 | 5.2 | 0.00 | 0.05 | 0.00 | 81 | 1011.7 |
| 20260903105824 | 78 | 183 | 2.6 | 5.2 | 0.00 | 0.05 | 0.00 | 81 | 1014.7 |
| 20260903105535 | 77 | 183 | 1.7 | 5.2 | 0.00 | 0.05 | 0.00 | 81 | 1011.7 |
| 20260903105322 | 78 | 183 | 2.6 | 5.2 | 0.00 | 0.05 | 0.00 | 81 | 1014.8 |
| 20260903105024 | 77 | 183 | 2.6 | 5.2 | 0.00 | 0.05 | 0.00 | 81 | 1011.7 |
| 20260903104840 | 78 | 183 | 2.6 | 5.2 | 0.00 | 0.05 | 0.00 | 81 | 1014.8 |
| 20260903104516 | 77 | 203 | 2.6 | 5.2 | 0.00 | 0.05 | 0.00 | 81 | 1011.7 |
| 20260903104331 | 78 | 197 | 2.6 | 5.2 | 0.00 | 0.05 | 0.00 | 81 | 1014.7 |
| 20260903104101 | 77 | 197 | 2.6 | 5.2 | 0.00 | 0.05 | 0.00 | 80 | 1011.7 |
| 20260903103829 | 78 | 226 | 2.6 | 5.2 | 0.00 | 0.05 | 0.00 | 80 | 1014.5 |
| 20260903103546 | 77 | 206 | 1.7 | 5.2 | 0.00 | 0.05 | 0.00 | 80 | 1011.5 |
| 20260903103327 | 78 | 205 | 1.7 | 5.2 | 0.00 | 0.05 | 0.00 | 80 | 1014.4 |
| 20260903103051 | 78 | 204 | 2.6 | 5.2 | 0.00 | 0.05 | 0.00 | 80 | 1011.3 |
| 20260903102825 | 78 | 208 | 2.6 | 4.3 | 0.00 | 0.05 | 0.00 | 80 | 1014.4 |
| 20260903102527 | 78 | 208 | 1.7 | 4.3 | 0.00 | 0.05 | 0.00 | 80 | 1011.5 |
| 20260903102323 | 78 | 208 | 2.6 | 4.3 | 0.00 | 0.05 | 0.00 | 80 | 1014.5 |
| 20260903102009 | 78 | 204 | 2.6 | 5.2 | 0.00 | 0.05 | 0.00 | 79 | 1011.5 |
| 20260903101821 | 78 | 193 | 3.5 | 5.2 | 0.00 | 0.05 | 0.00 | 79 | 1014.5 |
| 20260903101600 | 78 | 184 | 1.7 | 5.2 | 0.00 | 0.05 | 0.00 | 79 | 1011.5 |
| 20260903101340 | 78 | 184 | 3.5 | 5.2 | 0.00 | 0.05 | 0.00 | 79 | 1014.6 |
| 20260903101048 | 78 | 197 | 2.6 | 5.2 | 0.00 | 0.05 | 0.00 | 79 | 1011.5 |
| 20260903100831 | 78 | 185 | 2.6 | 5.2 | 0.00 | 0.05 | 0.00 | 79 | 1014.6 |
| 20260903100538 | 78 | 187 | 2.6 | 6.1 | 0.00 | 0.05 | 0.00 | 79 | 1011.6 |
| 20260903100329 | 78 | 156 | 4.3 | 6.1 | 0.00 | 0.05 | 0.00 | 79 | 1014.6 |
| 20260903100031 | 78 | 160 | 3.5 | 6.1 | 0.00 | 0.05 | 0.00 | 79 | 1011.5 |
| 20260903095827 | 79 | 154 | 3.5 | 7.0 | 0.00 | 0.05 | 0.00 | 79 | 1014.6 |
| 20260903095510 | 78 | 170 | 3.5 | 7.8 | 0.00 | 0.05 | 0.00 | 78 | 1011.6 |
| 20260903095325 | 79 | 158 | 5.2 | 7.8 | 0.00 | 0.05 | 0.00 | 78 | 1014.7 |
| 20260903095105 | 78 | 186 | 3.5 | 7.8 | 0.00 | 0.05 | 0.00 | 78 | 1011.7 |
| 20260903094843 | 79 | 197 | 5.2 | 7.8 | 0.00 | 0.05 | 0.00 | 78 | 1014.7 |
| 20260903094534 | 78 | 179 | 2.6 | 7.0 | 0.00 | 0.05 | 0.00 | 78 | 1011.7 |
| 20260903094320 | 79 | 179 | 3.5 | 7.0 | 0.00 | 0.05 | 0.00 | 78 | 1014.6 |
| 20260903094024 | 78 | 197 | 3.5 | 7.8 | 0.00 | 0.05 | 0.00 | 78 | 1011.7 |
| 20260903093838 | 79 | 175 | 3.5 | 7.8 | 0.00 | 0.05 | 0.00 | 77 | 1014.7 |
| 20260903093551 | 78 | 187 | 4.3 | 7.8 | 0.00 | 0.05 | 0.00 | 77 | 1011.8 |
| 20260903093335 | 79 | 179 | 3.5 | 7.0 | 0.00 | 0.05 | 0.00 | 77 | 1014.8 |
| 20260903093010 | 78 | 188 | 3.5 | 6.1 | 0.00 | 0.05 | 0.00 | 77 | 1011.7 |
| 20260903092832 | 79 | 187 | 3.5 | 6.1 | 0.00 | 0.05 | 0.00 | 77 | 1014.8 |
| 20260903092502 | 78 | 193 | 3.5 | 6.1 | 0.00 | 0.05 | 0.00 | 77 | 1011.9 |
| 20260903092330 | 79 | 167 | 3.5 | 6.1 | 0.00 | 0.05 | 0.00 | 77 | 1014.9 |
| 20260903092057 | 78 | 175 | 3.5 | 6.1 | 0.00 | 0.05 | 0.00 | 77 | 1012.0 |
| 20260903091823 | 79 | 170 | 4.3 | 6.1 | 0.00 | 0.05 | 0.00 | 77 | 1014.9 |
| 20260903091535 | 78 | 160 | 2.6 | 6.1 | 0.00 | 0.05 | 0.00 | 76 | 1011.9 |
| 20260903091321 | 79 | 188 | 3.5 | 6.1 | 0.00 | 0.05 | 0.00 | 76 | 1014.9 |
| 20260903091008 | 78 | 191 | 2.6 | 7.8 | 0.00 | 0.05 | 0.00 | 76 | 1011.9 |
| 20260903090819 | 79 | 207 | 3.5 | 7.8 | 0.00 | 0.05 | 0.00 | 76 | 1015.0 |
| 20260903090602 | 78 | 212 | 3.5 | 7.8 | 0.00 | 0.05 | 0.00 | 76 | 1011.9 |
| 20260903090317 | 79 | 173 | 4.3 | 8.7 | 0.00 | 0.05 | 0.00 | 76 | 1014.9 |
| 20260903090051 | 78 | 168 | 2.6 | 7.0 | 0.00 | 0.05 | 0.00 | 76 | 1011.8 |
| 20260903085815 | 79 | 199 | 2.6 | 7.0 | 0.00 | 0.05 | 0.00 | 76 | 1014.8 |
| 20260903085540 | 79 | 199 | 2.6 | 7.0 | 0.00 | 0.05 | 0.00 | 76 | 1011.8 |
| 20260903085353 | 79 | 192 | 4.3 | 7.0 | 0.00 | 0.05 | 0.00 | 76 | 1014.8 |
| 20260903085006 | 79 | 204 | 3.5 | 7.0 | 0.00 | 0.05 | 0.00 | 75 | 1011.8 |
| 20260903084850 | 79 | 168 | 3.5 | 7.0 | 0.00 | 0.05 | 0.00 | 75 | 1014.9 |
| 20260903084543 | 79 | 176 | 3.5 | 7.0 | 0.00 | 0.05 | 0.00 | 75 | 1011.8 |
| 20260903084327 | 79 | 190 | 4.3 | 7.0 | 0.00 | 0.05 | 0.00 | 75 | 1014.8 |
| 20260903084028 | 79 | 177 | 4.3 | 7.0 | 0.00 | 0.05 | 0.00 | 75 | 1011.8 |
| 20260903083825 | 79 | 188 | 3.5 | 7.0 | 0.00 | 0.05 | 0.00 | 75 | 1014.8 |
| 20260903083507 | 79 | 184 | 4.3 | 7.8 | 0.00 | 0.05 | 0.00 | 76 | 1011.9 |
| 20260903083323 | 79 | 205 | 5.2 | 7.8 | 0.00 | 0.05 | 0.00 | 76 | 1014.8 |
| 20260903083104 | 78 | 189 | 3.5 | 7.8 | 0.00 | 0.05 | 0.00 | 76 | 1011.8 |
| 20260903082821 | 79 | 206 | 4.3 | 7.8 | 0.00 | 0.05 | 0.00 | 76 | 1014.8 |
| 20260903082548 | 78 | 186 | 4.3 | 7.8 | 0.00 | 0.05 | 0.00 | 76 | 1011.8 |
| 20260903082318 | 79 | 197 | 5.2 | 7.8 | 0.00 | 0.05 | 0.00 | 76 | 1014.8 |
| 20260903082018 | 78 | 183 | 4.3 | 7.8 | 0.00 | 0.05 | 0.00 | 76 | 1011.9 |
| 20260903081815 | 78 | 184 | 4.3 | 7.8 | 0.00 | 0.05 | 0.00 | 76 | 1015.0 |
| 20260903081612 | 78 | 195 | 2.6 | 5.2 | 0.00 | 0.05 | 0.00 | 76 | 1011.8 |
| 20260903081314 | 78 | 198 | 3.5 | 5.2 | 0.00 | 0.05 | 0.00 | 77 | 1014.9 |
| 20260903081051 | 78 | 202 | 1.7 | 4.3 | 0.00 | 0.05 | 0.00 | 76 | 1011.9 |
| 20260903080839 | 78 | 201 | 2.6 | 5.2 | 0.00 | 0.05 | 0.00 | 76 | 1015.0 |
| 20260903080535 | 78 | 194 | 2.6 | 5.2 | 0.00 | 0.05 | 0.00 | 77 | 1012.0 |
| 20260903080331 | 78 | 205 | 1.7 | 5.2 | 0.00 | 0.05 | 0.00 | 77 | 1015.1 |
| 20260903080018 | 78 | 170 | 1.7 | 3.5 | 0.00 | 0.05 | 0.00 | 76 | 1012.1 |
| 20260903075830 | 78 | 170 | 1.7 | 3.5 | 0.00 | 0.05 | 0.00 | 77 | 1015.1 |
| 20260903075513 | 78 | 170 | 1.7 | 5.2 | 0.00 | 0.05 | 0.00 | 77 | 1012.2 |
| 20260903075330 | 78 | 170 | 2.6 | 5.2 | 0.00 | 0.05 | 0.00 | 77 | 1015.1 |
| 20260903075005 | 78 | 170 | 2.6 | 5.2 | 0.00 | 0.05 | 0.00 | 77 | 1012.1 |
| 20260903074830 | 78 | 170 | 4.3 | 5.2 | 0.00 | 0.05 | 0.00 | 76 | 1015.1 |
| 20260903074600 | 78 | 170 | 1.7 | 4.3 | 0.00 | 0.05 | 0.00 | 76 | 1012.1 |
| 20260903074327 | 78 | 170 | 2.6 | 4.3 | 0.00 | 0.05 | 0.00 | 76 | 1015.2 |
| 20260903074054 | 78 | 170 | 2.6 | 4.3 | 0.00 | 0.05 | 0.00 | 76 | 1012.2 |
| 20260903073824 | 78 | 170 | 3.5 | 4.3 | 0.00 | 0.05 | 0.00 | 76 | 1015.3 |
| 20260903073548 | 78 | 170 | 3.5 | 4.3 | 0.00 | 0.05 | 0.00 | 76 | 1012.2 |
| 20260903073322 | 78 | 170 | 3.5 | 4.3 | 0.00 | 0.05 | 0.00 | 76 | 1015.3 |
| 20260903073038 | 78 | 170 | 3.5 | 4.3 | 0.00 | 0.05 | 0.00 | 76 | 1012.3 |
| 20260903072821 | 78 | 170 | 2.6 | 3.5 | 0.00 | 0.05 | 0.00 | 76 | 1015.3 |
| 20260903072531 | 78 | 170 | 1.7 | 3.5 | 0.00 | 0.05 | 0.00 | 76 | 1012.3 |
| 20260903072319 | 79 | 170 | 2.6 | 3.5 | 0.00 | 0.05 | 0.00 | 76 | 1015.3 |
| 20260903072054 | 78 | 170 | 1.7 | 3.5 | 0.00 | 0.05 | 0.00 | 76 | 1012.3 |
| 20260903071818 | 79 | 170 | 2.6 | 3.5 | 0.00 | 0.05 | 0.00 | 76 | 1015.3 |
| 20260903071552 | 78 | 170 | 0.9 | 2.6 | 0.00 | 0.05 | 0.00 | 76 | 1012.3 |
| 20260903071316 | 79 | 170 | 0.0 | 2.6 | 0.00 | 0.05 | 0.00 | 76 | 1015.3 |
| 20260903071040 | 78 | 170 | 0.9 | 3.5 | 0.00 | 0.05 | 0.00 | 76 | 1012.2 |
| 20260903070833 | 79 | 170 | 0.9 | 2.6 | 0.00 | 0.05 | 0.00 | 76 | 1015.3 |
| 20260903070537 | 78 | 170 | 0.9 | 2.6 | 0.00 | 0.05 | 0.00 | 75 | 1012.3 |
| 20260903070332 | 79 | 170 | 0.9 | 3.5 | 0.00 | 0.05 | 0.00 | 75 | 1015.4 |
| 20260903070028 | 78 | 170 | 0.9 | 3.5 | 0.00 | 0.05 | 0.00 | 75 | 1012.4 |
| 20260903065827 | 79 | 170 | 1.7 | 3.5 | 0.00 | 0.05 | 0.00 | 75 | 1015.4 |
| 20260903065524 | 79 | 170 | 1.7 | 3.5 | 0.00 | 0.05 | 0.00 | 75 | 1012.4 |
| 20260903065324 | 79 | 170 | 0.9 | 3.5 | 0.00 | 0.05 | 0.00 | 75 | 1015.4 |
| 20260903065008 | 79 | 170 | 0.9 | 3.5 | 0.00 | 0.05 | 0.00 | 75 | 1012.4 |
| 20260903064840 | 79 | 170 | 0.9 | 3.5 | 0.00 | 0.05 | 0.00 | 75 | 1015.4 |
| 20260903064548 | 79 | 170 | 0.9 | 3.5 | 0.00 | 0.05 | 0.00 | 75 | 1012.5 |
| 20260903064318 | 79 | 170 | 1.7 | 3.5 | 0.00 | 0.05 | 0.00 | 75 | 1015.5 |
| 20260903064034 | 79 | 170 | 2.6 | 3.5 | 0.00 | 0.05 | 0.00 | 75 | 1012.5 |
| 20260903063854 | 80 | 170 | 2.6 | 3.5 | 0.00 | 0.05 | 0.00 | 75 | 1015.5 |
| 20260903063559 | 79 | 170 | 1.7 | 4.3 | 0.00 | 0.05 | 0.00 | 74 | 1012.6 |
| 20260903063322 | 80 | 170 | 1.7 | 4.3 | 0.00 | 0.05 | 0.00 | 74 | 1015.7 |
| 20260903063051 | 79 | 170 | 2.6 | 4.3 | 0.00 | 0.05 | 0.00 | 74 | 1012.7 |
| 20260903062825 | 80 | 170 | 2.6 | 4.3 | 0.00 | 0.05 | 0.00 | 74 | 1015.7 |
| 20260903062536 | 79 | 170 | 1.7 | 3.5 | 0.00 | 0.05 | 0.00 | 74 | 1012.8 |
| 20260903062320 | 80 | 170 | 3.5 | 4.3 | 0.00 | 0.05 | 0.00 | 74 | 1015.8 |
| 20260903062026 | 80 | 149 | 1.7 | 4.3 | 0.00 | 0.05 | 0.00 | 74 | 1012.8 |
| 20260903061820 | 80 | 149 | 1.7 | 5.2 | 0.00 | 0.05 | 0.00 | 74 | 1015.9 |
| 20260903061524 | 80 | 140 | 1.7 | 5.2 | 0.00 | 0.05 | 0.00 | 74 | 1012.7 |
| 20260903061317 | 80 | 140 | 0.9 | 5.2 | 0.00 | 0.05 | 0.00 | 74 | 1015.8 |
| 20260903061002 | 80 | 115 | 1.7 | 4.3 | 0.00 | 0.05 | 0.00 | 74 | 1012.6 |
| 20260903060816 | 80 | 125 | 1.7 | 4.3 | 0.00 | 0.05 | 0.00 | 74 | 1015.8 |
| 20260903060558 | 80 | 104 | 1.7 | 4.3 | 0.00 | 0.05 | 0.00 | 74 | 1012.8 |
| 20260903060314 | 80 | 135 | 2.6 | 4.3 | 0.00 | 0.05 | 0.00 | 74 | 1015.9 |
| 20260903060048 | 80 | 138 | 0.9 | 5.2 | 0.00 | 0.05 | 0.00 | 73 | 1012.8 |
| 20260903055828 | 80 | 133 | 1.7 | 7.0 | 0.00 | 0.05 | 0.00 | 73 | 1015.8 |
| 20260903055517 | 80 | 139 | 0.9 | 7.8 | 0.00 | 0.05 | 0.00 | 73 | 1012.7 |
| 20260903055327 | 81 | 149 | 1.7 | 7.8 | 0.00 | 0.05 | 0.00 | 73 | 1015.7 |
| 20260903055008 | 80 | 133 | 3.5 | 7.8 | 0.00 | 0.05 | 0.00 | 73 | 1012.6 |
| 20260903054824 | 81 | 145 | 3.5 | 6.1 | 0.00 | 0.05 | 0.00 | 73 | 1015.6 |
| 20260903054607 | 80 | 140 | 1.7 | 6.1 | 0.00 | 0.05 | 0.00 | 73 | 1012.7 |
| 20260903054324 | 81 | 130 | 2.6 | 6.1 | 0.00 | 0.05 | 0.00 | 73 | 1015.6 |
| 20260903054052 | 80 | 110 | 1.7 | 6.1 | 0.00 | 0.05 | 0.00 | 72 | 1012.6 |
| 20260903053840 | 81 | 118 | 2.6 | 6.1 | 0.00 | 0.05 | 0.00 | 72 | 1015.8 |
| 20260903053539 | 80 | 108 | 2.6 | 7.8 | 0.00 | 0.05 | 0.00 | 72 | 1012.7 |
| 20260903053331 | 81 | 125 | 1.7 | 7.8 | 0.00 | 0.05 | 0.00 | 72 | 1015.7 |
| 20260903053036 | 81 | 125 | 3.5 | 7.8 | 0.00 | 0.05 | 0.00 | 72 | 1012.6 |
| 20260903052829 | 81 | 173 | 3.5 | 7.0 | 0.00 | 0.05 | 0.00 | 71 | 1015.7 |
| 20260903052514 | 81 | 137 | 1.7 | 7.0 | 0.00 | 0.05 | 0.00 | 71 | 1012.7 |
| 20260903052324 | 81 | 139 | 3.5 | 10.4 | 0.00 | 0.05 | 0.00 | 71 | 1015.8 |
| 20260903052006 | 81 | 113 | 2.6 | 10.4 | 0.00 | 0.05 | 0.00 | 71 | 1012.9 |
| 20260903051821 | 81 | 120 | 2.6 | 10.4 | 0.00 | 0.05 | 0.00 | 71 | 1015.8 |
| 20260903051600 | 81 | 118 | 6.1 | 10.4 | 0.00 | 0.05 | 0.00 | 71 | 1012.7 |
| 20260903051320 | 81 | 119 | 4.3 | 9.6 | 0.00 | 0.05 | 0.00 | 71 | 1015.8 |
| 20260903051054 | 81 | 116 | 2.6 | 8.7 | 0.00 | 0.05 | 0.00 | 70 | 1012.8 |
| 20260903050817 | 82 | 114 | 3.5 | 8.7 | 0.00 | 0.05 | 0.00 | 70 | 1015.7 |
| 20260903050546 | 81 | 106 | 2.6 | 8.7 | 0.00 | 0.05 | 0.00 | 70 | 1012.7 |
| 20260903050353 | 82 | 131 | 3.5 | 8.7 | 0.00 | 0.05 | 0.00 | 70 | 1015.8 |
| 20260903050109 | 81 | 142 | 3.5 | 10.4 | 0.00 | 0.05 | 0.00 | 70 | 1012.7 |
| 20260903045839 | 82 | 143 | 1.7 | 10.4 | 0.00 | 0.05 | 0.05 | 70 | 1015.6 |
| 20260903045542 | 82 | 132 | 4.3 | 10.4 | 0.00 | 0.05 | 0.05 | 70 | 1012.7 |
| 20260903045331 | 82 | 101 | 4.3 | 8.7 | 0.00 | 0.05 | 0.05 | 70 | 1015.7 |
| 20260903045036 | 82 | 116 | 4.3 | 7.8 | 0.00 | 0.05 | 0.05 | 70 | 1012.7 |
| 20260903044830 | 82 | 108 | 3.5 | 7.8 | 0.00 | 0.05 | 0.05 | 69 | 1015.8 |
| 20260903044532 | 82 | 87 | 2.6 | 7.8 | 0.00 | 0.05 | 0.05 | 69 | 1012.7 |
| 20260903044329 | 83 | 101 | 3.5 | 9.6 | 0.00 | 0.05 | 0.05 | 69 | 1015.8 |
| 20260903044016 | 82 | 152 | 2.6 | 9.6 | 0.00 | 0.05 | 0.05 | 69 | 1012.7 |
| 20260903043828 | 83 | 121 | 3.5 | 9.6 | 0.00 | 0.05 | 0.05 | 69 | 1015.7 |
| 20260903043508 | 82 | 96 | 3.5 | 9.6 | 0.00 | 0.05 | 0.05 | 69 | 1012.8 |
| 20260903043329 | 83 | 83 | 2.6 | 7.0 | 0.00 | 0.05 | 0.05 | 68 | 1015.7 |
| 20260903043003 | 83 | 93 | 2.6 | 7.0 | 0.00 | 0.05 | 0.05 | 68 | 1012.6 |
| 20260903042827 | 83 | 105 | 1.7 | 7.0 | 0.00 | 0.05 | 0.05 | 68 | 1015.6 |
| 20260903042559 | 83 | 118 | 1.7 | 7.0 | 0.00 | 0.05 | 0.05 | 68 | 1012.5 |
| 20260903042326 | 83 | 122 | 2.6 | 7.0 | 0.00 | 0.05 | 0.05 | 67 | 1015.5 |
| 20260903042050 | 83 | 39 | 3.5 | 7.8 | 0.00 | 0.05 | 0.05 | 67 | 1012.4 |
| 20260903041845 | 84 | 105 | 2.6 | 7.8 | 0.00 | 0.05 | 0.05 | 67 | 1015.5 |
| 20260903041525 | 83 | 88 | 2.6 | 7.8 | 0.00 | 0.05 | 0.05 | 67 | 1012.5 |
| 20260903041323 | 84 | 53 | 2.6 | 7.8 | 0.00 | 0.05 | 0.05 | 66 | 1015.6 |
| 20260903041006 | 84 | 83 | 1.7 | 9.6 | 0.00 | 0.05 | 0.05 | 66 | 1012.6 |
| 20260903040821 | 84 | 110 | 3.5 | 9.6 | 0.00 | 0.05 | 0.05 | 66 | 1015.6 |
| 20260903040538 | 84 | 75 | 4.3 | 9.6 | 0.00 | 0.05 | 0.05 | 66 | 1012.6 |
| 20260903040322 | 84 | 33 | 5.2 | 9.6 | 0.00 | 0.05 | 0.05 | 66 | 1015.6 |
| 20260903040032 | 84 | 64 | 5.2 | 10.4 | 0.00 | 0.05 | 0.05 | 65 | 1012.6 |
| 20260903035820 | 85 | 108 | 4.3 | 10.4 | 0.00 | 0.05 | 0.05 | 65 | 1015.6 |
| 20260903035526 | 84 | 114 | 3.5 | 10.4 | 0.00 | 0.05 | 0.05 | 64 | 1012.6 |
| 20260903035319 | 85 | 133 | 5.2 | 11.3 | 0.00 | 0.05 | 0.05 | 64 | 1015.6 |
| 20260903035021 | 84 | 100 | 4.3 | 11.3 | 0.00 | 0.05 | 0.05 | 64 | 1012.7 |
| 20260903034820 | 85 | 112 | 5.2 | 11.3 | 0.00 | 0.05 | 0.05 | 64 | 1015.7 |
| 20260903034507 | 85 | 69 | 4.3 | 11.3 | 0.00 | 0.05 | 0.05 | 63 | 1012.6 |
| 20260903034320 | 85 | 48 | 3.5 | 11.3 | 0.00 | 0.05 | 0.05 | 63 | 1015.6 |
| 20260903034058 | 85 | 96 | 4.3 | 11.3 | 0.00 | 0.05 | 0.05 | 63 | 1012.6 |
| 20260903033820 | 85 | 69 | 5.2 | 11.3 | 0.00 | 0.05 | 0.05 | 63 | 1015.6 |
| 20260903033552 | 85 | 79 | 4.3 | 9.6 | 0.00 | 0.05 | 0.05 | 63 | 1012.6 |
| 20260903033338 | 85 | 97 | 5.2 | 8.7 | 0.00 | 0.05 | 0.05 | 63 | 1015.6 |
| 20260903033038 | 85 | 147 | 3.5 | 9.6 | 0.00 | 0.05 | 0.05 | 63 | 1012.5 |
| 20260903032831 | 85 | 103 | 3.5 | 9.6 | 0.00 | 0.05 | 0.05 | 63 | 1015.6 |
| 20260903032535 | 85 | 82 | 3.5 | 13.9 | 0.00 | 0.05 | 0.05 | 63 | 1012.4 |
| 20260903032331 | 85 | 43 | 5.2 | 13.9 | 0.00 | 0.05 | 0.05 | 63 | 1015.6 |
| 20260903032028 | 85 | 90 | 5.2 | 13.9 | 0.00 | 0.05 | 0.05 | 62 | 1012.4 |
| 20260903031830 | 85 | 119 | 7.8 | 13.9 | 0.00 | 0.05 | 0.05 | 62 | 1015.5 |
| 20260903031508 | 84 | 112 | 2.6 | 7.0 | 0.00 | 0.05 | 0.05 | 64 | 1012.3 |
| 20260903031328 | 85 | 85 | 2.6 | 7.0 | 0.00 | 0.05 | 0.05 | 64 | 1015.4 |
| 20260903031000 | 84 | 110 | 0.0 | 1.7 | 0.00 | 0.05 | 0.05 | 64 | 1012.0 |
| 20260903030847 | 85 | 110 | 0.9 | 1.7 | 0.00 | 0.05 | 0.05 | 64 | 1015.0 |
| 20260903030532 | 84 | 110 | 0.0 | 0.9 | 0.00 | 0.05 | 0.05 | 65 | 1012.0 |
| 20260903030343 | 85 | 110 | 0.0 | 0.9 | 0.00 | 0.05 | 0.05 | 64 | 1014.9 |
| 20260903030119 | 84 | 110 | 0.0 | 0.9 | 0.00 | 0.05 | 0.05 | 64 | 1011.8 |
| 20260903025841 | 85 | 110 | 0.0 | 0.9 | 0.00 | 0.05 | 0.05 | 64 | 1014.9 |
| 20260903025526 | 84 | 110 | 0.0 | 0.9 | 0.00 | 0.05 | 0.05 | 64 | 1011.7 |
| 20260903025338 | 85 | 110 | 0.0 | 0.9 | 0.00 | 0.05 | 0.05 | 64 | 1014.8 |
| 20260903025052 | 85 | 110 | 0.0 | 0.9 | 0.00 | 0.05 | 0.05 | 64 | 1011.6 |
| 20260903024816 | 85 | 110 | 0.0 | 0.9 | 0.00 | 0.05 | 0.05 | 64 | 1014.8 |
| 20260903024546 | 85 | 110 | 0.0 | 0.9 | 0.00 | 0.05 | 0.05 | 64 | 1011.5 |
| 20260903024315 | 85 | 110 | 0.0 | 1.7 | 0.00 | 0.05 | 0.05 | 64 | 1014.7 |
| 20260903024040 | 85 | 110 | 0.0 | 1.7 | 0.00 | 0.05 | 0.05 | 65 | 1011.5 |
| 20260903023814 | 85 | 110 | 0.0 | 1.7 | 0.00 | 0.05 | 0.05 | 64 | 1014.6 |
| 20260903023537 | 85 | 110 | 0.9 | 1.7 | 0.00 | 0.05 | 0.05 | 63 | 1011.5 |
| 20260903023350 | 86 | 110 | 0.9 | 1.7 | 0.00 | 0.05 | 0.05 | 64 | 1014.6 |
| 20260903023057 | 85 | 111 | 0.0 | 0.9 | 0.00 | 0.05 | 0.05 | 64 | 1011.5 |
| 20260903022829 | 86 | 110 | 0.0 | 0.9 | 0.00 | 0.05 | 0.05 | 67 | 1014.5 |
| 20260903022549 | 85 | 111 | 0.0 | 0.0 | 0.00 | 0.05 | 0.05 | 65 | 1011.3 |
| 20260903022350 | 86 | 110 | 0.0 | 0.0 | 0.00 | 0.05 | 0.05 | 64 | 1014.4 |
| 20260903022008 | 86 | 110 | 0.0 | 0.9 | 0.00 | 0.05 | 0.05 | 63 | 1011.3 |
| 20260903021830 | 86 | 110 | 0.0 | 0.9 | 0.00 | 0.05 | 0.05 | 63 | 1014.3 |
| 20260903021506 | 86 | 110 | 0.0 | 0.9 | 0.00 | 0.05 | 0.05 | 65 | 1011.1 |
| 20260903021350 | 86 | 110 | 0.0 | 0.9 | 0.00 | 0.05 | 0.05 | 65 | 1014.2 |
| 20260903021033 | 86 | 110 | 0.0 | 0.9 | 0.00 | 0.05 | 0.05 | 63 | 1011.1 |
| 20260903020846 | 86 | 110 | 0.0 | 0.9 | 0.00 | 0.05 | 0.05 | 62 | 1014.2 |
| 20260903020558 | 86 | 110 | 0.0 | 1.7 | 0.00 | 0.05 | 0.05 | 63 | 1011.1 |
| 20260903020324 | 86 | 110 | 0.0 | 1.7 | 0.00 | 0.05 | 0.05 | 62 | 1014.2 |
| 20260903020105 | 86 | 110 | 0.0 | 1.7 | 0.00 | 0.05 | 0.05 | 62 | 1011.0 |
| 20260903015822 | 86 | 110 | 0.9 | 1.7 | 0.00 | 0.05 | 0.05 | 62 | 1014.2 |
| 20260903015554 | 86 | 110 | 0.0 | 1.7 | 0.00 | 0.05 | 0.05 | 62 | 1011.0 |
| 20260903015319 | 87 | 110 | 0.0 | 1.7 | 0.00 | 0.05 | 0.05 | 61 | 1014.1 |
| 20260903015050 | 86 | 110 | 0.0 | 1.7 | 0.00 | 0.05 | 0.05 | 62 | 1010.9 |
| 20260903014814 | 87 | 110 | 0.0 | 2.6 | 0.00 | 0.05 | 0.05 | 62 | 1014.1 |
| 20260903014520 | 87 | 110 | 0.0 | 2.6 | 0.00 | 0.05 | 0.05 | 62 | 1011.0 |
| 20260903014331 | 88 | 110 | 0.0 | 2.6 | 0.00 | 0.05 | 0.05 | 63 | 1014.0 |
| 20260903014004 | 87 | 110 | 0.9 | 2.6 | 0.00 | 0.05 | 0.05 | 63 | 1011.0 |
| 20260903013828 | 88 | 110 | 0.9 | 1.7 | 0.00 | 0.05 | 0.05 | 63 | 1014.0 |
| 20260903013556 | 87 | 110 | 0.0 | 0.9 | 0.00 | 0.05 | 0.05 | 62 | 1011.0 |
| 20260903013345 | 88 | 110 | 0.0 | 0.9 | 0.00 | 0.05 | 0.05 | 62 | 1013.9 |
| 20260903013026 | 88 | 110 | 0.0 | 0.9 | 0.00 | 0.05 | 0.05 | 61 | 1011.0 |
| 20260903012819 | 88 | 110 | 0.0 | 0.9 | 0.00 | 0.05 | 0.05 | 60 | 1014.0 |
| 20260903012551 | 88 | 110 | 0.0 | 0.0 | 0.00 | 0.05 | 0.05 | 59 | 1010.9 |
| 20260903012317 | 89 | 110 | 0.0 | 0.0 | 0.00 | 0.05 | 0.05 | 60 | 1014.0 |
| 20260903012042 | 88 | 110 | 0.0 | 0.0 | 0.00 | 0.05 | 0.05 | 60 | 1010.9 |
| 20260903011814 | 89 | 110 | 0.0 | 0.0 | 0.00 | 0.05 | 0.05 | 58 | 1013.9 |
| 20260903011537 | 88 | 110 | 0.0 | 0.0 | 0.00 | 0.05 | 0.05 | 57 | 1010.8 |
| 20260903011332 | 89 | 111 | 0.0 | 0.0 | 0.00 | 0.05 | 0.05 | 57 | 1013.8 |
| 20260903011015 | 89 | 110 | 0.0 | 0.0 | 0.00 | 0.05 | 0.05 | 56 | 1010.6 |
| 20260903010850 | 89 | 110 | 0.0 | 0.0 | 0.00 | 0.05 | 0.05 | 57 | 1013.7 |
| 20260903010545 | 89 | 110 | 0.0 | 0.0 | 0.00 | 0.05 | 0.05 | 57 | 1010.7 |
| 20260903010328 | 90 | 110 | 0.0 | 0.0 | 0.00 | 0.05 | 0.05 | 56 | 1013.7 |
| 20260903010039 | 89 | 110 | 0.0 | 0.0 | 0.00 | 0.05 | 0.05 | 55 | 1010.7 |
| 20260903005824 | 90 | 110 | 0.0 | 0.0 | 0.00 | 0.05 | 0.05 | 58 | 1013.9 |
| 20260903005530 | 90 | 110 | 0.0 | 0.0 | 0.00 | 0.05 | 0.05 | 58 | 1010.7 |
| 20260903005342 | 90 | 110 | 0.0 | 0.0 | 0.00 | 0.05 | 0.05 | 59 | 1013.9 |
| 20260903005051 | 89 | 110 | 0.0 | 0.0 | 0.00 | 0.05 | 0.05 | 56 | 1010.7 |
| 20260903004818 | 90 | 110 | 0.0 | 0.0 | 0.00 | 0.05 | 0.05 | 56 | 1013.8 |
| 20260903004542 | 89 | 110 | 0.0 | 0.0 | 0.00 | 0.05 | 0.05 | 55 | 1010.6 |
| 20260903004315 | 90 | 110 | 0.0 | 0.0 | 0.00 | 0.05 | 0.05 | 55 | 1013.8 |
| 20260903004034 | 89 | 111 | 0.0 | 0.0 | 0.00 | 0.05 | 0.05 | 55 | 1010.7 |
| 20260903003833 | 90 | 104 | 0.0 | 0.0 | 0.00 | 0.05 | 0.05 | 55 | 1013.8 |
| 20260903003515 | 89 | 105 | 0.0 | 0.0 | 0.02 | 0.05 | 0.05 | 55 | 1010.7 |
| 20260903003329 | 90 | 145 | 0.0 | 0.0 | 0.02 | 0.05 | 0.05 | 55 | 1013.8 |
| 20260903003008 | 89 | 102 | 0.0 | 0.0 | 0.02 | 0.05 | 0.05 | 55 | 1010.6 |
| 20260903002829 | 90 | 98 | 0.0 | 0.0 | 0.02 | 0.05 | 0.05 | 55 | 1013.7 |
| 20260903002600 | 89 | 143 | 0.0 | 0.0 | 0.05 | 0.05 | 0.05 | 56 | 1010.6 |
| 20260903002326 | 89 | 113 | 0.0 | 0.0 | 0.05 | 0.05 | 0.05 | 56 | 1013.7 |
| 20260903002050 | 89 | 112 | 0.0 | 0.0 | 0.05 | 0.05 | 0.05 | 56 | 1010.6 |
| 20260903001820 | 89 | 114 | 0.0 | 0.0 | 0.05 | 0.05 | 0.05 | 57 | 1013.7 |
| 20260903001520 | 88 | 114 | 0.0 | 0.0 | 0.05 | 0.05 | 0.05 | 58 | 1010.6 |
| 20260903001316 | 89 | 129 | 0.0 | 0.0 | 0.05 | 0.05 | 0.05 | 59 | 1013.8 |
| 20260903001002 | 88 | 102 | 0.0 | 0.0 | 0.05 | 0.05 | 0.05 | 60 | 1010.7 |
| 20260903000813 | 88 | 120 | 0.0 | 0.0 | 0.05 | 0.05 | 0.05 | 61 | 1013.8 |
| 20260903000556 | 88 | 110 | 0.0 | 0.0 | 0.05 | 0.05 | 0.05 | 60 | 1010.7 |
| 20260903000332 | 88 | 168 | 0.0 | 0.0 | 0.05 | 0.05 | 0.05 | 61 | 1013.7 |
| 20260903000055 | 88 | 168 | 0.0 | 0.0 | 0.05 | 0.05 | 0.05 | 62 | 1010.7 |
| 20260902235830 | 88 | 168 | 0.0 | 0.0 | 0.05 | 0.05 | 0.05 | 61 | 1013.7 |
| 20260902235540 | 88 | 169 | 0.0 | 0.0 | 0.05 | 0.05 | 0.05 | 59 | 1010.5 |
| 20260902235326 | 88 | 165 | 0.0 | 0.0 | 0.05 | 0.05 | 0.05 | 58 | 1013.8 |
| 20260902235029 | 88 | 176 | 0.0 | 8.7 | 0.05 | 0.05 | 0.05 | 57 | 1010.6 |
| 20260902234826 | 89 | 168 | 0.0 | 8.7 | 0.05 | 0.05 | 0.05 | 55 | 1013.8 |
| 20260902234514 | 88 | 155 | 0.0 | 8.7 | 0.05 | 0.05 | 0.05 | 54 | 1010.6 |
| 20260902234323 | 88 | 130 | 1.7 | 8.7 | 0.05 | 0.05 | 0.05 | 54 | 1013.7 |
| 20260902234010 | 88 | 108 | 4.3 | 7.0 | 0.05 | 0.05 | 0.05 | 51 | 1010.6 |
| 20260902233820 | 88 | 91 | 1.7 | 5.2 | 0.04 | 0.04 | 0.04 | 50 | 1013.9 |
| 20260902233558 | 88 | 230 | 0.9 | 3.5 | 0.03 | 0.03 | 0.03 | 50 | 1010.9 |
| 20260902233318 | 90 | 342 | 0.0 | 0.0 | 0.03 | 0.03 | 0.03 | 51 | 1014.2 |
| 20260902233054 | 92 | 317 | 0.0 | 0.0 | 0.03 | 0.03 | 0.03 | 50 | 1011.2 |
| 20260902232815 | 95 | 299 | 0.0 | 0.0 | 0.02 | 0.02 | 0.02 | 47 | 1014.2 |
| 20260902232539 | 95 | 242 | 0.0 | 0.0 | 0.00 | 0.00 | 0.00 | 45 | 1010.9 |
| 20260902232333 | 95 | 160 | 0.0 | 0.0 | 0.00 | 0.00 | 0.00 | 45 | 1013.8 |
| 20260902232033 | 95 | 198 | 0.0 | 0.0 | 0.00 | 0.00 | 0.00 | 43 | 1010.7 |
| 20260902231851 | 96 | 181 | 0.0 | 0.0 | 0.00 | 0.00 | 0.00 | 43 | 1013.7 |
| 20260902231556 | 95 | 143 | 0.0 | 0.0 | 0.00 | 0.00 | 0.00 | 41 | 1010.6 |
| 20260902231326 | 96 | 131 | 0.0 | 0.0 | 0.00 | 0.00 | 0.00 | 41 | 1013.6 |
| 20260902231044 | 96 | 152 | 0.0 | 0.0 | 0.00 | 0.00 | 0.00 | 41 | 1010.6 |
| 20260902230824 | 96 | 142 | 0.0 | 0.0 | 0.00 | 0.00 | 0.00 | 41 | 1013.7 |
| 20260902230535 | 96 | 110 | 0.0 | 0.0 | 0.00 | 0.00 | 0.00 | 41 | 1010.5 |
| 20260902230324 | 96 | 129 | 0.0 | 0.0 | 0.00 | 0.00 | 0.00 | 41 | 1013.7 |
| 20260902230028 | 96 | 149 | 0.0 | 0.0 | 0.00 | 0.00 | 0.00 | 41 | 1010.6 |
| 20260902225821 | 96 | 113 | 0.0 | 0.0 | 0.00 | 0.00 | 0.00 | 41 | 1013.7 |
| 20260902225527 | 96 | 118 | 0.0 | 0.0 | 0.00 | 0.00 | 0.00 | 41 | 1010.6 |
| 20260902225320 | 96 | 109 | 0.0 | 6.1 | 0.00 | 0.00 | 0.00 | 41 | 1013.7 |
| 20260902225028 | 96 | 110 | 0.0 | 7.0 | 0.00 | 0.00 | 0.00 | 41 | 1010.7 |
| 20260902224819 | 97 | 81 | 0.0 | 7.0 | 0.00 | 0.00 | 0.00 | 40 | 1013.7 |
| 20260902224522 | 97 | 129 | 2.6 | 7.0 | 0.00 | 0.00 | 0.00 | 40 | 1010.6 |
| 20260902224318 | 97 | 91 | 2.6 | 5.2 | 0.00 | 0.00 | 0.00 | 40 | 1013.6 |
| 20260902224020 | 97 | 354 | 0.0 | 3.5 | 0.00 | 0.00 | 0.00 | 40 | 1010.6 |
| 20260902223817 | 97 | 187 | 0.0 | 5.2 | 0.00 | 0.00 | 0.00 | 40 | 1013.6 |
| 20260902223502 | 97 | 74 | 0.0 | 5.2 | 0.00 | 0.00 | 0.00 | 39 | 1010.5 |
| 20260902223315 | 98 | 90 | 0.0 | 5.2 | 0.00 | 0.00 | 0.00 | 39 | 1013.7 |
| 20260902223056 | 97 | 112 | 2.6 | 5.2 | 0.00 | 0.00 | 0.00 | 40 | 1010.5 |
| 20260902222851 | 98 | 31 | 3.5 | 6.1 | 0.00 | 0.00 | 0.00 | 40 | 1013.6 |
| 20260902222531 | 97 | 113 | 2.6 | 6.1 | 0.00 | 0.00 | 0.00 | 39 | 1010.5 |
| 20260902222330 | 98 | 91 | 2.6 | 6.1 | 0.00 | 0.00 | 0.00 | 40 | 1013.6 |
| 20260902222017 | 97 | 62 | 0.0 | 0.0 | 0.00 | 0.00 | 0.00 | 40 | 1010.6 |
| 20260902221830 | 98 | 75 | 0.0 | 0.0 | 0.00 | 0.00 | 0.00 | 40 | 1013.8 |
| 20260902221518 | 97 | 324 | 0.0 | 0.0 | 0.00 | 0.00 | 0.00 | 40 | 1010.6 |
| 20260902221326 | 98 | 251 | 0.0 | 0.0 | 0.00 | 0.00 | 0.00 | 40 | 1013.8 |
| 20260902221002 | 97 | 287 | 0.0 | 0.0 | 0.00 | 0.00 | 0.00 | 40 | 1010.7 |
| 20260902220846 | 98 | 40 | 0.0 | 2.6 | 0.00 | 0.00 | 0.00 | 39 | 1013.9 |
| 20260902220539 | 97 | 8 | 0.0 | 2.6 | 0.00 | 0.00 | 0.00 | 40 | 1010.8 |
| 20260902220323 | 98 | 328 | 0.0 | 2.6 | 0.00 | 0.00 | 0.00 | 40 | 1013.8 |
| 20260902220028 | 97 | 28 | 0.0 | 2.6 | 0.00 | 0.00 | 0.00 | 40 | 1010.8 |
| 20260902215839 | 98 | 318 | 0.0 | 0.0 | 0.00 | 0.00 | 0.00 | 41 | 1013.8 |
| 20260902215516 | 97 | 241 | 0.0 | 0.0 | 0.00 | 0.00 | 0.00 | 41 | 1010.7 |
| 20260902215329 | 97 | 256 | 0.0 | 0.0 | 0.00 | 0.00 | 0.00 | 41 | 1013.8 |
| 20260902215059 | 97 | 206 | 0.0 | 0.0 | 0.00 | 0.00 | 0.00 | 40 | 1010.7 |
| 20260902214827 | 97 | 206 | 0.0 | 0.0 | 0.00 | 0.00 | 0.00 | 40 | 1013.9 |
| 20260902214553 | 96 | 228 | 0.0 | 0.0 | 0.00 | 0.00 | 0.00 | 40 | 1010.8 |
| 20260902214325 | 97 | 220 | 0.0 | 0.0 | 0.00 | 0.00 | 0.00 | 40 | 1013.9 |
| 20260902214048 | 96 | 243 | 0.0 | 6.1 | 0.00 | 0.00 | 0.00 | 40 | 1010.9 |
| 20260902213823 | 97 | 244 | 0.0 | 7.0 | 0.00 | 0.00 | 0.00 | 40 | 1014.0 |
| 20260902213540 | 96 | 256 | 0.0 | 11.3 | 0.00 | 0.00 | 0.00 | 41 | 1010.9 |
| 20260902213321 | 97 | 262 | 4.3 | 11.3 | 0.00 | 0.00 | 0.00 | 41 | 1014.0 |
| 20260902213034 | 96 | 266 | 4.3 | 11.3 | 0.00 | 0.00 | 0.00 | 42 | 1010.9 |
| 20260902212838 | 97 | 276 | 4.3 | 11.3 | 0.00 | 0.00 | 0.00 | 42 | 1014.0 |
| 20260902212520 | 96 | 205 | 0.0 | 6.1 | 0.00 | 0.00 | 0.00 | 42 | 1010.9 |
| 20260902212330 | 96 | 205 | 0.9 | 6.1 | 0.00 | 0.00 | 0.00 | 42 | 1014.1 |
| 20260902212004 | 96 | 216 | 2.6 | 5.2 | 0.00 | 0.00 | 0.00 | 42 | 1011.0 |
| 20260902211827 | 96 | 225 | 1.7 | 5.2 | 0.00 | 0.00 | 0.00 | 43 | 1014.1 |
| 20260902211559 | 95 | 88 | 0.0 | 2.6 | 0.00 | 0.00 | 0.00 | 43 | 1011.0 |
| 20260902211325 | 96 | 181 | 0.0 | 0.0 | 0.00 | 0.00 | 0.00 | 43 | 1014.1 |
| 20260902211053 | 95 | 270 | 0.0 | 0.0 | 0.00 | 0.00 | 0.00 | 43 | 1011.1 |
| 20260902210823 | 95 | 284 | 0.0 | 0.0 | 0.00 | 0.00 | 0.00 | 44 | 1014.1 |
| 20260902210543 | 94 | 304 | 0.0 | 0.0 | 0.00 | 0.00 | 0.00 | 44 | 1011.2 |
| 20260902210322 | 95 | 306 | 0.0 | 0.0 | 0.00 | 0.00 | 0.00 | 44 | 1014.3 |
| 20260902210033 | 94 | 306 | 0.0 | 0.0 | 0.00 | 0.00 | 0.00 | 45 | 1011.3 |
| 20260902205820 | 95 | 306 | 0.0 | 0.0 | 0.00 | 0.00 | 0.00 | 45 | 1014.3 |
| 20260902205523 | 94 | 306 | 0.0 | 0.0 | 0.00 | 0.00 | 0.00 | 45 | 1011.4 |
| 20260902205316 | 94 | 306 | 0.0 | 0.0 | 0.00 | 0.00 | 0.00 | 45 | 1014.5 |
| 20260902205016 | 94 | 106 | 0.0 | 0.0 | 0.00 | 0.00 | 0.00 | 45 | 1011.5 |
| 20260902204833 | 94 | 105 | 0.0 | 0.0 | 0.00 | 0.00 | 0.00 | 45 | 1014.6 |
| 20260902204614 | 94 | 98 | 0.0 | 0.0 | 0.00 | 0.00 | 0.00 | 45 | 1011.5 |
| 20260902204332 | 94 | 230 | 0.0 | 0.0 | 0.00 | 0.00 | 0.00 | 46 | 1014.6 |
| 20260902204054 | 93 | 231 | 0.0 | 0.0 | 0.00 | 0.00 | 0.00 | 45 | 1011.6 |
| 20260902203830 | 94 | 231 | 0.0 | 0.0 | 0.00 | 0.00 | 0.00 | 45 | 1014.7 |
| 20260902203545 | 93 | 216 | 0.0 | 0.0 | 0.00 | 0.00 | 0.00 | 46 | 1011.7 |
| 20260902203329 | 94 | 258 | 0.0 | 0.0 | 0.00 | 0.00 | 0.00 | 46 | 1014.8 |